Montevideo, MN

1:36 AM CDT on March 28, 2017 (GMT -0500)
Montevideo-Chippewa County

Weather History for KMVE - August, 2013

Change the Weather History Date:

Friday, August 2, 2013

  Actual Average Record
Temperature  
Mean Temperature 64 °F -  
Max Temperature 73 °F 84 °F 101 °F (1988)
Min Temperature 55 °F 58 °F 6 °F (2000)
Degree Days  
Heating Degree Days 1    
Growing Degree Days 14 (Base 50)    
Moisture  
Dew Point 56 °F    
Average Humidity 73    
Maximum Humidity 100    
Minimum Humidity 47    
Precipitation  
Precipitation 0.00 in - - ()
Sea Level Pressure  
Sea Level Pressure 29.99 in    
Wind  
Wind Speed 2 mph (NNE)    
Max Wind Speed 9 mph    
Max Gust Speed -    
Visibility 10 miles    
Events      
Averages and records for this station are not official NWS values.
T = Trace of Precipitation, MM = Missing Value Source: NWS Daily Summary

Daily Weather History Graph

Daily Weather History Graph

Search for Another Location

Airport or City:

Trip Planner

Search our weather history database for the weather conditions in past years. The results will help you decide how hot, cold, wet, or windy it might be!

Date:

Astronomy

Aug. 02, 2013 Rise Set
Actual Time 6:09 AM CDT 8:47 PM CDT
Civil Twilight 5:36 AM CDT 9:21 PM CDT
Nautical Twilight 4:53 AM CDT 10:03 PM CDT
Astronomical Twilight 4:05 AM CDT 10:51 PM CDT
Moon 2:29 AM CDT (8/2) 5:48 PM CDT (8/2)
Length of Visible Light 15h 44m
Length of Day
14h 37m
Waning Crescent, 15% of the Moon is Illuminated
Aug 2
Waning Crescent
Aug 6
New
Aug 14
First Quarter
Aug 20
Full
Aug 28
Last Quarter

Hourly Weather History & Observations

Time (CDT) Temp. Dew Point Humidity Pressure Visibility Wind Dir Wind Speed Gust Speed Precip Events Conditions
12:14 AM 62.6 °F 55.4 °F 77% 29.92 in 10.0 mi Calm Calm - N/A   Clear
12:34 AM 60.8 °F 57.2 °F 88% 29.91 in 10.0 mi Calm Calm - N/A   Clear
12:54 AM 62.6 °F 55.4 °F 77% 29.91 in 10.0 mi Calm Calm - N/A   Clear
1:14 AM 62.6 °F 55.4 °F 77% 29.91 in 10.0 mi NNW 4.6 mph - N/A   Clear
1:34 AM 62.6 °F 57.2 °F 82% 29.93 in 10.0 mi NNW 4.6 mph - N/A   Clear
1:54 AM 60.8 °F 57.2 °F 88% 29.92 in 10.0 mi Calm Calm - N/A   Clear
2:14 AM 60.8 °F 57.2 °F 88% 29.93 in 10.0 mi Calm Calm - N/A   Clear
2:34 AM 60.8 °F 57.2 °F 88% 29.93 in 10.0 mi North 3.5 mph - N/A   Clear
2:54 AM 60.8 °F 57.2 °F 88% 29.93 in 10.0 mi North 3.5 mph - N/A   Clear
3:14 AM 60.8 °F 57.2 °F 88% 29.93 in 10.0 mi Calm Calm - N/A   Clear
3:34 AM 60.8 °F 57.2 °F 88% 29.93 in 10.0 mi Calm Calm - N/A   Clear
3:54 AM 60.8 °F 57.2 °F 88% 29.93 in 10.0 mi North 3.5 mph - N/A   Clear
4:14 AM 60.8 °F 57.2 °F 88% 29.94 in 10.0 mi North 3.5 mph - N/A   Clear
4:34 AM 59.0 °F 55.4 °F 88% 29.94 in 10.0 mi Calm Calm - N/A   Clear
4:54 AM 57.2 °F 55.4 °F 94% 29.94 in 10.0 mi Calm Calm - N/A   Clear
5:14 AM 57.2 °F 55.4 °F 94% 29.95 in 10.0 mi NNW 3.5 mph - N/A   Clear
5:34 AM 57.2 °F 55.4 °F 94% 29.94 in 10.0 mi North 5.8 mph - N/A   Clear
5:54 AM 57.2 °F 55.4 °F 94% 29.96 in 10.0 mi NNW 3.5 mph - N/A   Clear
6:14 AM 57.2 °F 55.4 °F 94% 29.95 in 10.0 mi North 3.5 mph - N/A   Clear
6:34 AM 55.4 °F 55.4 °F 100% 29.95 in 10.0 mi North 3.5 mph - N/A   Clear
6:54 AM 57.2 °F 55.4 °F 94% 29.96 in 10.0 mi North 4.6 mph - N/A   Clear
7:14 AM 60.8 °F 55.4 °F 82% 29.96 in 10.0 mi North 3.5 mph - N/A   Clear
7:34 AM 60.8 °F 55.4 °F 82% 29.97 in 10.0 mi Calm Calm - N/A   Clear
7:54 AM 60.8 °F 57.2 °F 88% 29.97 in 10.0 mi Calm Calm - N/A   Clear
8:14 AM 60.8 °F 57.2 °F 88% 29.97 in 10.0 mi Calm Calm - N/A   Clear
8:34 AM 62.6 °F 57.2 °F 82% 29.97 in 10.0 mi North 3.5 mph - N/A   Clear
8:54 AM 62.6 °F 57.2 °F 82% 29.98 in 10.0 mi Calm Calm - N/A   Clear
9:14 AM 64.4 °F 59.0 °F 83% 29.98 in 10.0 mi NE 3.5 mph - N/A   Clear
9:34 AM 64.4 °F 60.8 °F 88% 29.98 in 10.0 mi NE 3.5 mph - N/A   Clear
9:54 AM 64.4 °F 60.8 °F 88% 29.98 in 10.0 mi ENE 3.5 mph - N/A   Clear
10:13 AM 66.2 °F 60.8 °F 83% 29.98 in 10.0 mi Calm Calm - N/A   Clear
10:34 AM 68.0 °F 59.0 °F 73% 29.98 in 10.0 mi Calm Calm - N/A   Clear
10:54 AM 69.8 °F 59.0 °F 68% 29.99 in 10.0 mi Calm Calm - N/A   Clear
11:13 AM 69.8 °F 57.2 °F 64% 29.99 in 10.0 mi Calm Calm - N/A   Clear
11:34 AM 69.8 °F 57.2 °F 64% 29.99 in 10.0 mi Calm Calm - N/A   Clear
11:54 AM 69.8 °F 59.0 °F 68% 30.00 in 10.0 mi NNE 3.5 mph - N/A   Clear
12:13 PM 69.8 °F 57.2 °F 64% 30.00 in 10.0 mi North 3.5 mph - N/A   Clear
12:34 PM 71.6 °F 57.2 °F 60% 30.01 in 10.0 mi Calm Calm - N/A   Clear
12:54 PM 71.6 °F 59.0 °F 64% 30.01 in 10.0 mi North 4.6 mph - N/A   Clear
1:14 PM 73.4 °F 59.0 °F 61% 30.01 in 10.0 mi NE 6.9 mph - N/A   Clear
1:34 PM 71.6 °F 59.0 °F 64% 30.02 in 10.0 mi NNW 5.8 mph - N/A   Scattered Clouds
1:54 PM 73.4 °F 57.2 °F 57% 30.02 in 10.0 mi North 5.8 mph - N/A   Scattered Clouds
2:14 PM 73.4 °F 57.2 °F 57% 30.01 in 10.0 mi North 4.6 mph - N/A   Clear
2:34 PM 71.6 °F 57.2 °F 60% 30.01 in 10.0 mi North 5.8 mph - N/A   Scattered Clouds
2:54 PM 71.6 °F 57.2 °F 60% 30.01 in 10.0 mi NNE 4.6 mph - N/A   Clear
3:14 PM 71.6 °F 59.0 °F 64% 30.01 in 10.0 mi North 5.8 mph - N/A   Clear
3:34 PM 71.6 °F 57.2 °F 60% 30.01 in 10.0 mi NNE 5.8 mph - N/A   Scattered Clouds
3:53 PM 73.4 °F 57.2 °F 57% 30.00 in 10.0 mi NE 6.9 mph - N/A   Clear
4:14 PM 73.4 °F 55.4 °F 53% 29.99 in 10.0 mi NNE 4.6 mph - N/A   Clear
4:34 PM 73.4 °F 53.6 °F 50% 29.99 in 10.0 mi ENE 5.8 mph - N/A   Clear
4:53 PM 73.4 °F 53.6 °F 50% 30.00 in 10.0 mi East 4.6 mph - N/A   Scattered Clouds
5:14 PM 73.4 °F 53.6 °F 50% 30.02 in 10.0 mi ENE 9.2 mph - N/A   Mostly Cloudy
5:34 PM 73.4 °F 53.6 °F 50% 30.01 in 10.0 mi NE 5.8 mph - N/A   Scattered Clouds
5:54 PM 73.4 °F 53.6 °F 50% 30.02 in 10.0 mi NNE 5.8 mph - N/A   Clear
6:14 PM 73.4 °F 53.6 °F 50% 30.02 in 10.0 mi ENE 6.9 mph - N/A   Scattered Clouds
6:34 PM 73.4 °F 51.8 °F 47% 30.02 in 10.0 mi NNE 5.8 mph - N/A   Scattered Clouds
6:54 PM 71.6 °F 51.8 °F 50% 30.02 in 10.0 mi NNE 6.9 mph - N/A   Clear
7:14 PM 71.6 °F 53.6 °F 53% 30.02 in 10.0 mi NNE 4.6 mph - N/A   Clear
7:34 PM 71.6 °F 55.4 °F 57% 30.03 in 10.0 mi NNE 4.6 mph - N/A   Clear
7:54 PM 69.8 °F 55.4 °F 60% 30.03 in 10.0 mi NNE 5.8 mph - N/A   Clear
8:14 PM 68.0 °F 55.4 °F 64% 30.04 in 10.0 mi NNE 6.9 mph - N/A   Clear
8:34 PM 66.2 °F 55.4 °F 68% 30.04 in 10.0 mi North 4.6 mph - N/A   Clear
8:54 PM 64.4 °F 55.4 °F 73% 30.05 in 10.0 mi North 3.5 mph - N/A   Clear
9:14 PM 66.2 °F 55.4 °F 68% 30.06 in 10.0 mi Calm Calm - N/A   Clear
9:34 PM 64.4 °F 55.4 °F 73% 30.07 in 10.0 mi North 3.5 mph - N/A   Clear
9:54 PM 64.4 °F 55.4 °F 73% 30.07 in 10.0 mi Calm Calm - N/A   Clear
10:14 PM 62.6 °F 53.6 °F 72% 30.08 in 10.0 mi Calm Calm - N/A   Clear
10:33 PM 62.6 °F 53.6 °F 72% 30.08 in 10.0 mi NNE 3.5 mph - N/A   Clear
10:54 PM 62.6 °F 53.6 °F 72% 30.08 in 10.0 mi Calm Calm - N/A   Clear
11:14 PM 62.6 °F 53.6 °F 72% 30.09 in 10.0 mi Calm Calm - N/A   Clear
11:34 PM 60.8 °F 53.6 °F 77% 30.08 in 10.0 mi Calm Calm - N/A   Clear
11:54 PM 60.8 °F 53.6 °F 77% 30.09 in 10.0 mi NNW 3.5 mph - N/A   Clear